Weather History for KLAW - October, 2013

Change the Weather History Date:

Wednesday, October 2, 2013

  Actual Average Record
Temperature  
Mean Temperature 78 °F -  
Max Temperature 90 °F 83 °F 100 °F (2000)
Min Temperature 66 °F 55 °F 40 °F (1985)
Cooling Degree Days 12    
Growing Degree Days 28 (Base 50)    
Moisture  
Dew Point 66 °F    
Average Humidity 72    
Maximum Humidity 94    
Minimum Humidity 43    
Precipitation  
Precipitation 0.00 in - - ()
Sea Level Pressure  
Sea Level Pressure 29.87 in    
Wind  
Wind Speed 10 mph (SSE)    
Max Wind Speed 16 mph    
Max Gust Speed 23 mph    
Visibility 10 miles    
Events      
Averages and records for this station are not official NWS values.
T = Trace of Precipitation, MM = Missing Value Source: NWS Daily Summary

Daily Weather History Graph

Daily Weather History Graph

Search for Another Location

Airport or City:

Trip Planner

Search our weather history database for the weather conditions in past years. The results will help you decide how hot, cold, wet, or windy it might be!

Date:

Astronomy

Oct. 02, 2013 Rise Set
Actual Time 7:29 AM CDT 7:15 PM CDT
Civil Twilight 7:04 AM CDT 7:41 PM CDT
Nautical Twilight 6:34 AM CDT 8:10 PM CDT
Astronomical Twilight 6:05 AM CDT 8:39 PM CDT
Moon 5:08 AM CDT (10/2) 5:49 PM CDT (10/2)
Length of Visible Light 12h 36m
Length of Day
11h 46m
Waning Crescent, 6% of the Moon is Illuminated
Oct 2
Waning Crescent
Oct 4
New
Oct 11
First Quarter
Oct 18
Full
Oct 26
Last Quarter

Hourly Weather History & Observations

Time (CDT) Temp. Heat Index Dew Point Humidity Pressure Visibility Wind Dir Wind Speed Gust Speed Precip Events Conditions
12:53 AM 69.1 °F - 61.0 °F 75% 29.88 in 10.0 mi ESE 10.4 mph - N/A   Clear
1:53 AM 68.0 °F - 61.0 °F 78% 29.88 in 10.0 mi ESE 6.9 mph - N/A   Clear
2:53 AM 66.9 °F - 61.0 °F 81% 29.88 in 10.0 mi ESE 5.8 mph - N/A   Clear
3:53 AM 66.9 °F - 62.1 °F 84% 29.87 in 10.0 mi ESE 4.6 mph - N/A   Clear
4:53 AM 66.9 °F - 64.9 °F 93% 29.87 in 10.0 mi SE 8.1 mph - N/A   Clear
5:53 AM 69.1 °F - 66.9 °F 93% 29.88 in 10.0 mi SE 5.8 mph - N/A   Clear
6:53 AM 70.0 °F - 66.9 °F 90% 29.89 in 10.0 mi SE 8.1 mph - N/A   Partly Cloudy
7:53 AM 70.0 °F - 68.0 °F 93% 29.90 in 10.0 mi SE 10.4 mph - N/A   Mostly Cloudy
8:00 AM 69.8 °F - 68.0 °F 94% 29.93 in 10.0 mi SE 10.4 mph - N/A   Mostly Cloudy
8:10 AM 71.6 °F - 69.8 °F 94% 29.93 in 10.0 mi SE 10.4 mph - N/A   Mostly Cloudy
8:53 AM 72.0 °F - 69.1 °F 91% 29.92 in 10.0 mi SSE 12.7 mph 20.7 mph N/A   Overcast
9:53 AM 73.0 °F - 69.1 °F 87% 29.94 in 10.0 mi South 11.5 mph - N/A   Overcast
10:18 AM 73.4 °F - 69.8 °F 88% 29.97 in 10.0 mi SSE 16.1 mph 20.7 mph N/A   Overcast
10:53 AM 78.1 °F - 69.1 °F 74% 29.93 in 10.0 mi SSE 12.7 mph 18.4 mph N/A   Overcast
11:07 AM 78.8 °F - 69.8 °F 74% 29.96 in 10.0 mi South 10.4 mph - N/A   Overcast
11:53 AM 82.0 °F 85.5 °F 69.1 °F 65% 29.91 in 10.0 mi South 11.5 mph - N/A   Overcast
12:53 PM 84.9 °F 88.8 °F 69.1 °F 59% 29.88 in 10.0 mi SSE 15.0 mph 20.7 mph N/A   Mostly Cloudy
1:53 PM 88.0 °F 92.1 °F 69.1 °F 53% 29.85 in 10.0 mi South 13.8 mph 21.9 mph N/A   Scattered Clouds
2:53 PM 88.0 °F 90.7 °F 66.9 °F 49% 29.82 in 10.0 mi SSE 13.8 mph 23.0 mph N/A   Partly Cloudy
3:53 PM 89.1 °F 91.3 °F 66.0 °F 46% 29.81 in 10.0 mi South 13.8 mph 21.9 mph N/A   Partly Cloudy
4:53 PM 88.0 °F 89.6 °F 64.9 °F 46% 29.80 in 10.0 mi SSE 16.1 mph - N/A   Scattered Clouds
5:53 PM 88.0 °F 88.7 °F 63.0 °F 43% 29.79 in 10.0 mi SSE 12.7 mph 23.0 mph N/A   Clear
6:53 PM 84.9 °F 86.6 °F 64.9 °F 51% 29.79 in 10.0 mi SSE 11.5 mph - N/A   Partly Cloudy
7:53 PM 82.0 °F 83.4 °F 64.0 °F 54% 29.81 in 10.0 mi SE 9.2 mph - N/A   Clear
8:53 PM 80.1 °F 81.7 °F 64.0 °F 58% 29.82 in 10.0 mi SE 10.4 mph - N/A   Clear
9:53 PM 75.9 °F - 64.9 °F 69% 29.84 in 10.0 mi SE 9.2 mph - N/A   Clear
10:53 PM 75.9 °F - 66.0 °F 71% 29.84 in 10.0 mi SE 12.7 mph - N/A   Clear
11:53 PM 75.9 °F - 66.9 °F 74% 29.83 in 10.0 mi SSE 11.5 mph - N/A   Clear